Location: Hilton Head Island
(32.2163°N, 80.7526°W)
Time: 14:16:16
(UTC-04:00)

Tiros 1 despin weight - Pass Details

Date: 21 February 2026
Orbit: 556 x 593 km, 48.2° (Epoch: 10 March)

Event Time Altitude Azimuth Distance (km) Brightness Sun altitude
Rises 11:57:13 0° 199° (SSW) 2,759 ? 46.4°
Reaches altitude 10° 11:59:49 10° 185° (S) 1,858 ? 46.5°
Maximum altitude 12:03:12 23° 132° (SE) 1,207 ? 46.7°
Drops below altitude 10° 12:06:34 10° 79° (ENE) 1,848 ? 46.8°
Sets 12:09:09 0° 65° (ENE) 2,741 ? 46.9°
